Printer-friendly version
Follow the MPC on Twitter Follow the MPC on Facebook The MPC blog
Minor Planet Center

MPEC 2010-C61 : 2010 CB19

The following Minor Planet Electronic Circular may be linked-to from your own Web pages, but must not otherwise be redistributed electronically.

A form allowing access to any MPEC is at the bottom of this page.


Read MPEC 2010-C60 Read MPEC 2010-C62


M.P.E.C. 2010-C61                                Issued 2010 Feb. 15, 12:28 UT

     The Minor Planet Electronic Circulars contain information on unusual
         minor planets and routine data on comets.  They are published
   on behalf of Commission 20 of the International Astronomical Union by the
          Minor Planet Center, Smithsonian Astrophysical Observatory,
                          Cambridge, MA 02138, U.S.A.

             Prepared using the Tamkin Foundation Computer Network

                              MPC@CFA.HARVARD.EDU
          URL http://www.cfa.harvard.edu/iau/mpc.html  ISSN 1523-6714

                                   2010 CB19

Observations:
     K10C19B* C2010 02 13.21711 07 22 31.21 +13 35 13.1          18.9   EC061704
     K10C19B  C2010 02 13.22949 07 22 39.41 +13 33 40.5          18.9   EC061704
     K10C19B  C2010 02 13.24170 07 22 47.52 +13 32 09.2          19.7   EC061704
     K10C19B  C2010 02 13.25407 07 22 55.61 +13 30 35.6          19.7   EC061704
     K10C19B  C2010 02 13.26645 07 23 03.85 +13 29 04.4          19.3   EC061704
     K10C19B  C2010 02 14.14907 07 32 48.81 +11 53 41.2          18.7   EC061704
     K10C19B  C2010 02 14.16127 07 32 54.79 +11 52 33.0          19.1   EC061704
     K10C19B  C2010 02 14.17396 07 33 00.99 +11 51 21.5          18.9   EC061704
     K10C19B  C2010 02 14.18618 07 33 06.91 +11 50 12.5          18.5   EC061704
     K10C19B  C2010 02 14.19840 07 33 12.76 +11 49 04.0          18.9   EC061704
     K10C19B  C2010 02 15.06597 07 40 15.87 +10 35 30.9          18.7 R EC061473
     K10C19B  C2010 02 15.06736 07 40 16.47 +10 35 25.1          18.7 R EC061473
     K10C19B  C2010 02 15.15149 07 41 06.49 +10 30 01.8          19.1 R EC061H01
     K10C19B  C2010 02 15.15849 07 41 09.07 +10 29 31.5          19.1 R EC061H01
     K10C19B  C2010 02 15.16778 07 41 12.49 +10 28 51.3          19.0 R EC061H01
     K10C19B  C2010 02 15.17638 07 41 15.62 +10 28 14.2          19.0 R EC061H01
     K10C19B tC2010 02 15.21388 07 41 30.00 +10 25 39.2          19.5 V EC061291
     K10C19B tC2010 02 15.22169 07 41 32.83 +10 25 05.2          19.3 V EC061291
     K10C19B  C2010 02 15.22536 07 41 33.93 +10 24 50.2          18.7 R EC061651
     K10C19B  C2010 02 15.22611 07 41 34.19 +10 24 46.9          18.6 R EC061651
     K10C19B  C2010 02 15.22685 07 41 34.46 +10 24 43.5          18.7 R EC061651

Observer details:
291 LPL/Spacewatch II.  Observer T. H. Bressi.  1.8-m f/2.7 reflector + CCD.
473 Remanzacco.  Observers L. Donato, V. Gonano, E. Guido, G. Sostero.  0.45-m
    f/4.4 Newtonian reflector + CCD.
651 Grasslands Observatory, Tucson.  Observer J. E. McGaha.  0.62-m f/5.1
    Newtonian reflector + CCD.
704 Lincoln Laboratory ETS, New Mexico.  Observers M. Blythe, G. Spitz,
    R. Brungard, J. Paige, P. Festler.  1.0-m f/2.15 reflector + CCD.
H01 Magdalena Ridge Observatory, Socorro.  Observers W. H. Ryan, E. V. Ryan.
    Measurer W. H. Ryan.  2.4-m f/8.9 reflector + CCD.

Orbital elements:
2010 CB19                                                Earth MOID = 0.0041 AU
Epoch 2010 Jan. 4.0 TT = JDT 2455200.5                  MPC
M  32.42804              (2000.0)            P               Q
n   0.95216944     Peri.   75.94843     +0.80016437     -0.59611019
a   1.0232770      Node   320.58335     +0.50213080     +0.72620451
e   0.3105693      Incl.    5.98942     +0.32802690     +0.34246118
P   1.04           H   24.4           G   0.15           U   8
Residuals in seconds of arc
100213 704  0.4+  0.1-    100214 704  0.2+  0.1+    100215 H01  0.1+  0.3-
100213 704  0.1+  0.1+    100214 704  0.2+  0.3-    100215 H01  0.0   0.3-
100213 704  0.4+  0.2+    100214 704  0.4-  0.2-    100215 291  0.4-  0.4+
100213 704  0.9-  0.8-    100215 473  0.1+  0.5-    100215 291  0.2+  0.0
100213 704  0.1-  0.6+    100215 473  0.3+  0.2+    100215 651  0.1+  0.1-
100214 704  0.1+  0.2+    100215 H01  0.0   0.1-    100215 651  0.0   0.2-
100214 704  0.0   0.4+    100215 H01  0.0   0.2-    100215 651  0.1+  0.4-

Ephemeris:
2010 CB19                a,e,i = 1.02, 0.31, 6                   q = 0.7055
Date    TT    R. A. (2000) Decl.     Delta      r     Elong.  Phase     V
2010 02 13    07 19.68   +14 04.8    0.0325   1.014   144.7    34.3    18.4
2010 02 14    07 31.28   +12 09.7    0.0379   1.019   146.4    32.5    18.7
2010 02 15    07 39.91   +10 42.7    0.0435   1.025   147.3    31.3    19.0
2010 02 16    07 46.59   +09 35.2    0.0492   1.030   147.9    30.7    19.2
2010 02 17    07 51.94   +08 41.5    0.0549   1.035   148.1    30.3    19.5
2010 02 18    07 56.34   +07 57.9    0.0607   1.040   148.1    30.1    19.7
2010 02 19    08 00.05   +07 22.0    0.0665   1.045   148.0    30.0    19.9
2010 02 20    08 03.23   +06 52.0    0.0724   1.051   147.8    30.1    20.1
2010 02 21    08 06.00   +06 26.6    0.0783   1.056   147.5    30.2    20.3
2010 02 22    08 08.47   +06 05.0    0.0842   1.061   147.1    30.4    20.5
2010 02 23    08 10.69   +05 46.3    0.0902   1.066   146.7    30.6    20.6
2010 02 24    08 12.71   +05 30.1    0.0962   1.071   146.3    30.9    20.8
2010 02 25    08 14.57   +05 16.0    0.102    1.076   145.8    31.1    20.9
2010 02 26    08 16.30   +05 03.6    0.108    1.081   145.3    31.4    21.1
2010 02 27    08 17.92   +04 52.7    0.115    1.086   144.8    31.8    21.2
2010 02 28    08 19.46   +04 43.0    0.121    1.091   144.2    32.1    21.4
2010 03 01    08 20.92   +04 34.4    0.127    1.096   143.6    32.4    21.5
2010 03 02    08 22.33   +04 26.7    0.133    1.100   143.1    32.8    21.6
2010 03 03    08 23.68   +04 19.9    0.139    1.105   142.5    33.1    21.7
2010 03 04    08 25.00   +04 13.8    0.146    1.110   141.9    33.5    21.8
2010 03 05    08 26.28   +04 08.3    0.152    1.114   141.3    33.8    22.0

Timothy B. Spahr             (C) Copyright 2010 MPC           M.P.E.C. 2010-C61

Read MPEC 2010-C60 Read MPEC 2010-C62


MPEC number:

Enter an MPEC number in one of the following forms:

  • 1997-B01 (the full form)
  • J97B01 (the packed version of the full form)
  • B01 (the abbreviated form)

Valid HTML 4.01!